Location: Brown Observing Site
(43.4354°N, 116.3366°W)
Time: 03:05:47
(UTC-06:00)

Envisat - Pass Details

Date: 04 October 2020
Orbit: 764 x 766 km, 98.1° (Epoch: 23 October)

Event Time Altitude Azimuth Distance (km) Brightness Sun altitude
Rises 19:50:29 0° 196° (SSW) 3,216 6.5 -6.4°
Reaches altitude 10° 19:53:07 10° 209° (SSW) 2,295 5.9 -6.9°
Maximum altitude 19:57:20 26° 266° (W) 1,460 5.6 -7.6°
Drops below altitude 10° 20:01:36 10° 323° (NW) 2,309 6.1 -8.4°
Sets 20:04:16 0° 336° (NNW) 3,240 6.6 -8.9°
